This is the latest recevied weather packets stored in our database for station/object NK0Z-13. If no packets are shown the sender has not sent any weather packets the latest 10 day(s).
| Time | Temp. | Humidity | Pressure | Rain* | Wind** | Luminosity | Snow |
|---|---|---|---|---|---|---|---|
| 1777655358 | 17.78° C | 30% | 1021.5 hPa | 0 mm | - | 731 W/m² | - |
| 1777654753 | 17.78° C | 34% | 1021.3 hPa | 0 mm | - | 723 W/m² | - |
| 1777654154 | 17.78° C | 32% | 1021.5 hPa | 0 mm | - | 702 W/m² | - |
| 1777653553 | 17.78° C | 38% | 1021.4 hPa | 0 mm | - | 693 W/m² | - |
| 1777652952 | 17.78° C | 37% | 1021.5 hPa | 0 mm | - | 676 W/m² | - |
| 1777652351 | 16.67° C | 37% | 1021.6 hPa | 0 mm | - | 660 W/m² | - |
| 1777651751 | 16.11° C | 43% | 1021.7 hPa | 0 mm | - | 642 W/m² | - |
| 1777651151 | 15.56° C | 46% | 1021.6 hPa | 0 mm | - | 610 W/m² | - |
| 1777650550 | 16.11° C | 46% | 1021.4 hPa | 0 mm | - | 586 W/m² | - |
| 1777649944 | 15.56° C | 47% | 1021.7 hPa | 0 mm | - | 560 W/m² | - |
| 1777649343 | 15.56° C | 45% | 1021.7 hPa | 0 mm | - | 537 W/m² | - |
| 1777648738 | 15.56° C | 47% | 1021.8 hPa | 0 mm | - | 511 W/m² | - |
| 1777648136 | 14.44° C | 48% | 1021.7 hPa | 0 mm | - | 488 W/m² | - |
| 1777647535 | 14.44° C | 49% | 1021.7 hPa | 0 mm | - | 470 W/m² | - |
| 1777646935 | 14.44° C | 48% | 1021.9 hPa | 0 mm | - | 449 W/m² | - |
| 1777646333 | 13.89° C | 50% | 1021.8 hPa | 0 mm | - | 424 W/m² | - |
| 1777645732 | 13.89° C | 55% | 1021.8 hPa | 0 mm | - | 402 W/m² | - |
| 1777645131 | 12.78° C | 55% | 1021.7 hPa | 0 mm | - | 376 W/m² | - |
| 1777644531 | 12.78° C | 57% | 1021.8 hPa | 0 mm | - | 351 W/m² | - |
| 1777643929 | 12.22° C | 62% | 1022 hPa | 0 mm | - | 322 W/m² | - |
| 1777643324 | 11.67° C | 63% | 1021.7 hPa | 0 mm | - | 276 W/m² | - |
| 1777642722 | 10.56° C | 68% | 1022 hPa | 0 mm | - | 249 W/m² | - |
| 1777642122 | 10° C | 70% | 1021.9 hPa | 0 mm | - | 197 W/m² | - |
| 1777641519 | 8.89° C | 79% | 1021.9 hPa | 0 mm | - | 161 W/m² | - |
| 1777640918 | 7.22° C | 90% | 1021.8 hPa | 0 mm | - | 140 W/m² | - |
* Rain latest hour (hover to see other rain measurements)
** Current wind speed in m/s (hover to see current wind gust speed)